This is the latest recevied weather packets stored in our database for station/object KC3ULW-13. If no packets are shown the sender has not sent any weather packets the latest 10 day(s).
| Time | Temp. | Humidity | Pressure | Rain* | Wind** | Luminosity | Snow |
|---|---|---|---|---|---|---|---|
| 1777579497 | 10° C | 65% | 1016.3 hPa | 0 mm | - | 261 W/m² | - |
| 1777579192 | 10° C | 65% | 1016.1 hPa | 0 mm | - | 175 W/m² | - |
| 1777578887 | 9.44° C | 67% | 1016.2 hPa | 0 mm | - | 138 W/m² | - |
| 1777578583 | 10° C | 66% | 1016.3 hPa | 0 mm | - | 149 W/m² | - |
| 1777578277 | 9.44° C | 66% | 1016.4 hPa | 0 mm | - | 170 W/m² | - |
| 1777577974 | 9.44° C | 66% | 1015.9 hPa | 0 mm | - | 157 W/m² | - |
| 1777577668 | 9.44° C | 66% | 1016.3 hPa | 0 mm | - | 157 W/m² | - |
| 1777577367 | 9.44° C | 66% | 1016.4 hPa | 0 mm | - | 121 W/m² | - |
| 1777577062 | 9.44° C | 66% | 1016.2 hPa | 0 mm | - | 77 W/m² | - |
| 1777576759 | 9.44° C | 66% | 1016.5 hPa | 0 mm | - | 122 W/m² | - |
| 1777576458 | 10° C | 67% | 1016.2 hPa | 0 mm | - | 182 W/m² | - |
| 1777576155 | 10° C | 67% | 1016.5 hPa | 0 mm | - | 203 W/m² | - |
| 1777575850 | 10° C | 67% | 1016.1 hPa | 0 mm | - | 192 W/m² | - |
| 1777575547 | 9.44° C | 67% | 1016.4 hPa | 0 mm | - | 154 W/m² | - |
| 1777575243 | 10° C | 66% | 1016.4 hPa | 0 mm | - | 180 W/m² | - |
| 1777574939 | 10° C | 66% | 1016.3 hPa | 0 mm | - | 185 W/m² | - |
| 1777574636 | 10° C | 65% | 1016.3 hPa | 0 mm | - | 230 W/m² | - |
| 1777574333 | 10° C | 66% | 1016.3 hPa | 0 mm | - | 288 W/m² | - |
| 1777574033 | 9.44° C | 68% | 1016.4 hPa | 0 mm | - | 329 W/m² | - |
| 1777573728 | 8.89° C | 69% | 1016.2 hPa | 0 mm | - | 235 W/m² | - |
| 1777573424 | 9.44° C | 68% | 1016.3 hPa | 0 mm | - | 136 W/m² | - |
| 1777573120 | 9.44° C | 68% | 1016.1 hPa | 0 mm | - | 139 W/m² | - |
| 1777572817 | 9.44° C | 68% | 1016.3 hPa | 0 mm | - | 114 W/m² | - |
| 1777572513 | 9.44° C | 67% | 1015.8 hPa | 0 mm | - | 149 W/m² | - |
| 1777572208 | 10° C | 67% | 1015.8 hPa | 0 mm | - | 404 W/m² | - |
* Rain latest hour (hover to see other rain measurements)
** Current wind speed in m/s (hover to see current wind gust speed)